DMSP 5D-2 F13 DEB, 40413

Orbit data source: Space-Track

DMSP 5D-2 F13 DEB, 40413 is space debris in SSO originally from a launch on Fri, 24 Mar 1995 UTC launched from the Air Force Western Test Range (AFWTR). Debris objects in space refer to the collection of defunct objects orbiting the Earth. Examples of debris include non-operational satellites, rocket bodies, and fragments generated from explosions, collisions, or faulty payload assembly.

Loading next visibility...
Identifier
40413, 1995-015AA
Orbit
SSO
Last TLE update
18 hours ago
Origin
Manufacturer
Unknown
Mission
Spacecraft
Bus & Motor
Unknown
Mass
Unknown
Launch date (UTC)
1995-03-24 (30 years ago)
Launch vehicle
Unknown
Launch site
Air Force Western Test Range (AFWTR)
Object type
Payload
Rocket body
Debris
Shape & HBR
Unknown
Radar Cross Section
Small (<0.1 m²)

Expand to show TLE details & history

TLE from 18 hours ago
0 DMSP 5D-2 F13 DEB
1 40413U 95015AA  25133.56970455  .00002393  00000-0  92908-3 0  9995
2 40413  98.6469 159.4489 0013563  29.7992 330.3961 14.30792016533113
Epoch: 2025-05-13T13:40Z
Definitive object data (Epoch: 2025-05-13T13:40:22.473Z)
Latitude
0.00006°
Longitude
82.7887°
Altitude
783.565 km
Speed
7.466 km/s
True Right ascension
10h 37m 47s
True Declination
0° 00' 00"
Sunlit
Object was in daylight at TLE epoch
Visualization TLE readout
Latitude
-76.07907°
Longitude
-134.07645°
Altitude
822.583 km
Speed
7.438 km/s
Apparent Right ascension
02h 46m 32s
Apparent Declination
-68° 38' 52"
Sunlit
Object is in daylight
Visualization observer readout
Local Sidereal Time
16:08:32
Azimuth
165.569° S
Elevation
-59.226°
Doppler factor
1
Orbital elements
Apogee altitude
795.943 km
Perigee altitude
776.509 km
Semi-major axis
7,164.363 km
Eccentricity
0.0013563
Inclination
98.6469°
RAAN
159.4489°
Arg. of periapsis
29.7992°
True anomaly
330.31921°
Mean anomaly
330.3961°
Eccentric anomaly
330.35767°
Mean motion
3.57912 °/min
BSTAR
0.00092908
Orbital period
100.58 mins
Loading maneuver chart data...
Loading SW <> Apogee altitude chart data...

DMSP 5D-2 F13 DEB Visibility forecast

Observer location: undefined°, undefined°

Span
Click to sort rows by Start time (UTC) header in descending order
Start Az.
Max El. time (UTC)
Max El. Az.
Max El.
End time (UTC)
End Az.
8 mins2025-05-14 13:45:47.418Z40.49° NE2025-05-14 13:49:47.418Z99.87° ESE26.091°2025-05-14 13:53:47.418Z154.287° SSE
7 mins2025-05-14 15:25:47.418Z345.026° N2025-05-14 15:28:47.418Z297.497° NW28.267°2025-05-14 15:32:47.418Z234.893° WSW
7 mins2025-05-15 01:03:47.418Z129.373° SE2025-05-15 01:06:47.418Z73.699° E33.365°2025-05-15 01:10:47.418Z5.451° NNE
6 mins2025-05-15 02:43:47.418Z226.103° WSW2025-05-15 02:46:47.418Z270.848° WNW20.789°2025-05-15 02:49:47.418Z311.208° NW
|